UAL1460 KIAD-KSYR

Flight info

Callsign UAL1460
Flight time 0h 48m
Altitude 33000
Route JERES2 JERES Q221 VALLO Q227 STENT CFB T335 CORTA
Aircraft A21N/M-SDE2E3FGHIJ1RWXY/LB1

Departure

Time 2026-05-08 07:55
Airport Washington Dulles International Airport (KIAD)

Arrival

Time 2026-05-08 08:43
Airport Syracuse Hancock International Airport (KSYR)
Time Latitude Longitude Altitude Speed Heading
2026-05-08 07:30 38.94493 -77.45222 306 ft 0 kts
2026-05-08 07:46 38.94478 -77.45226 307 ft 3 kts
2026-05-08 07:46 38.94459 -77.45229 306 ft 3 kts
2026-05-08 07:47 38.94439 -77.45227 306 ft 3 kts 339°
2026-05-08 07:47 38.94423 -77.45214 306 ft 3 kts 309°
2026-05-08 07:47 38.94415 -77.45194 306 ft 3 kts 275°
2026-05-08 07:47 38.94415 -77.45182 306 ft 0 kts 270°
2026-05-08 07:49 38.94415 -77.45183 306 ft 1 kts 270°
2026-05-08 07:50 38.94415 -77.45198 306 ft 4 kts 270°
2026-05-08 07:50 38.94415 -77.45247 306 ft 8 kts 271°
2026-05-08 07:50 38.94416 -77.45338 306 ft 12 kts 271°
2026-05-08 07:50 38.94419 -77.45457 306 ft 14 kts 271°
2026-05-08 07:51 38.94419 -77.45581 306 ft 8 kts 252°
2026-05-08 07:51 38.94366 -77.45612 306 ft 10 kts 179°
2026-05-08 07:51 38.94287 -77.45612 308 ft 12 kts 181°
2026-05-08 07:51 38.94194 -77.45615 307 ft 14 kts 181°
2026-05-08 07:52 38.94087 -77.45618 306 ft 16 kts 181°
2026-05-08 07:52 38.93967 -77.45621 307 ft 18 kts 181°
2026-05-08 07:52 38.93836 -77.45624 307 ft 20 kts 181°
2026-05-08 07:52 38.93739 -77.45626 307 ft 9 kts 180°
2026-05-08 07:53 38.93681 -77.45588 306 ft 11 kts 132°
2026-05-08 07:53 38.93637 -77.45513 307 ft 8 kts 133°
2026-05-08 07:53 38.93576 -77.45502 308 ft 10 kts 190°
2026-05-08 07:53 38.93501 -77.45536 305 ft 12 kts 202°
2026-05-08 07:54 38.93428 -77.45574 304 ft 9 kts 201°
2026-05-08 07:54 38.93386 -77.45629 306 ft 11 kts 270°
2026-05-08 07:54 38.93399 -77.45732 305 ft 13 kts 290°
2026-05-08 07:54 38.93465 -77.45957 306 ft 59 kts 290°
2026-05-08 07:55 38.93701 -77.46757 309 ft 129 kts 291°
2026-05-08 07:55 38.94086 -77.48030 385 ft 170 kts 292°
2026-05-08 07:55 38.94490 -77.49384 1220 ft 158 kts 292°
2026-05-08 07:55 38.95071 -77.50560 1831 ft 164 kts 312°
2026-05-08 07:56 38.95858 -77.51750 2345 ft 181 kts 312°
2026-05-08 07:56 38.96763 -77.53017 2727 ft 210 kts 323°
2026-05-08 07:56 38.98185 -77.53738 3251 ft 234 kts 351°
2026-05-08 07:56 38.99847 -77.53856 4138 ft 243 kts 355°
2026-05-08 07:57 39.01577 -77.53940 5114 ft 248 kts 354°
2026-05-08 07:57 39.03317 -77.54044 6078 ft 252 kts 354°
2026-05-08 07:57 39.05086 -77.54160 6973 ft 257 kts 353°
2026-05-08 07:57 39.06883 -77.54284 7873 ft 260 kts 353°
2026-05-08 07:58 39.08705 -77.54418 8754 ft 264 kts 352°
2026-05-08 07:58 39.10547 -77.54557 9644 ft 267 kts 352°
2026-05-08 07:58 39.12395 -77.54697 10409 ft 275 kts 352°
2026-05-08 07:58 39.14375 -77.54854 10770 ft 296 kts 352°
2026-05-08 07:59 39.16505 -77.55022 11066 ft 317 kts 352°
2026-05-08 07:59 39.18777 -77.55200 11352 ft 338 kts 352°
2026-05-08 07:59 39.21165 -77.55388 11924 ft 347 kts 352°
2026-05-08 07:59 39.23595 -77.55573 12680 ft 351 kts 352°
2026-05-08 08:00 39.26044 -77.55761 13465 ft 355 kts 351°
2026-05-08 08:00 39.28523 -77.55951 14201 ft 359 kts 351°
2026-05-08 08:00 39.31035 -77.56145 14859 ft 364 kts 350°
2026-05-08 08:00 39.33579 -77.56356 15496 ft 369 kts 349°
2026-05-08 08:01 39.36156 -77.56551 16152 ft 374 kts 349°
2026-05-08 08:01 39.38777 -77.56652 16804 ft 383 kts 354°
2026-05-08 08:01 39.41470 -77.56087 17431 ft 401 kts
2026-05-08 08:01 39.44150 -77.54914 18076 ft 411 kts 12°
2026-05-08 08:02 39.46852 -77.53626 18621 ft 417 kts 12°
2026-05-08 08:02 39.49584 -77.52329 19161 ft 421 kts 11°
2026-05-08 08:02 39.52356 -77.51028 19723 ft 425 kts 11°
2026-05-08 08:02 39.55151 -77.49735 20261 ft 429 kts 10°
2026-05-08 08:03 39.57978 -77.48432 20799 ft 433 kts
2026-05-08 08:03 39.60833 -77.47116 21316 ft 437 kts
2026-05-08 08:03 39.63723 -77.45907 21826 ft 433 kts
2026-05-08 08:03 39.66658 -77.45405 22322 ft 421 kts 351°
2026-05-08 08:04 39.69583 -77.45342 22835 ft 421 kts 349°
2026-05-08 08:04 39.72527 -77.45332 23372 ft 424 kts 348°
2026-05-08 08:04 39.75492 -77.45317 23833 ft 428 kts 348°
2026-05-08 08:04 39.78481 -77.45286 24285 ft 431 kts 348°
2026-05-08 08:05 39.81448 -77.45243 24742 ft 433 kts 349°
2026-05-08 08:05 39.84474 -77.45194 25207 ft 436 kts 349°
2026-05-08 08:05 39.87552 -77.45142 25662 ft 438 kts 349°
2026-05-08 08:05 39.90566 -77.45089 26112 ft 440 kts 349°
2026-05-08 08:06 39.93675 -77.45030 26576 ft 442 kts 349°
2026-05-08 08:06 39.96759 -77.44975 27007 ft 444 kts 348°
2026-05-08 08:06 39.99842 -77.44920 27528 ft 443 kts 348°
2026-05-08 08:06 40.02877 -77.44867 28140 ft 440 kts 348°
2026-05-08 08:07 40.05930 -77.44814 28702 ft 439 kts 348°
2026-05-08 08:07 40.08974 -77.44765 29241 ft 437 kts 348°
2026-05-08 08:07 40.12016 -77.44714 29788 ft 435 kts 347°
2026-05-08 08:07 40.15036 -77.44664 30269 ft 434 kts 347°
2026-05-08 08:08 40.18054 -77.44614 30653 ft 434 kts 347°
2026-05-08 08:08 40.21066 -77.44566 31033 ft 433 kts 347°
2026-05-08 08:08 40.24081 -77.44515 31416 ft 433 kts 347°
2026-05-08 08:08 40.27088 -77.44463 31764 ft 432 kts 347°
2026-05-08 08:09 40.30100 -77.44412 32080 ft 432 kts 347°
2026-05-08 08:09 40.33106 -77.44361 32468 ft 431 kts 347°
2026-05-08 08:09 40.36097 -77.44310 32848 ft 430 kts 347°
2026-05-08 08:09 40.39085 -77.44261 33012 ft 430 kts 347°
2026-05-08 08:10 40.42078 -77.44209 33033 ft 429 kts 347°
2026-05-08 08:10 40.48044 -77.44108 33006 ft 428 kts 347°
2026-05-08 08:11 40.53989 -77.44008 33000 ft 427 kts 347°
2026-05-08 08:11 40.59924 -77.43905 32995 ft 426 kts 347°
2026-05-08 08:12 40.65840 -77.43802 32994 ft 425 kts 347°
2026-05-08 08:12 40.71740 -77.43702 32990 ft 424 kts 347°
2026-05-08 08:12 40.74725 -77.43370 32989 ft 440 kts 356°
2026-05-08 08:13 40.77744 -77.42553 32997 ft 446 kts 359°
2026-05-08 08:13 40.83793 -77.40698 32993 ft 446 kts 359°
2026-05-08 08:14 40.89839 -77.38865 32994 ft 444 kts 359°
2026-05-08 08:14 40.95861 -77.37066 32999 ft 443 kts 359°
2026-05-08 08:15 41.01883 -77.35272 32998 ft 444 kts 359°
2026-05-08 08:15 41.07906 -77.33458 32995 ft 445 kts 359°
2026-05-08 08:16 41.13948 -77.31643 32993 ft 445 kts 359°
2026-05-08 08:16 41.19989 -77.29827 32998 ft 446 kts 359°
2026-05-08 08:17 41.26043 -77.28009 32985 ft 447 kts 359°
2026-05-08 08:17 41.32073 -77.26183 32987 ft 448 kts 359°
2026-05-08 08:18 41.38146 -77.24338 32988 ft 449 kts 360°
2026-05-08 08:18 41.44243 -77.22491 32987 ft 449 kts 360°
2026-05-08 08:19 41.50351 -77.20641 32993 ft 451 kts
2026-05-08 08:19 41.56472 -77.18783 32989 ft 452 kts
2026-05-08 08:20 41.62611 -77.16879 32987 ft 457 kts
2026-05-08 08:20 41.65637 -77.15364 32973 ft 477 kts 15°
2026-05-08 08:20 41.68462 -77.12873 32978 ft 499 kts 31°
2026-05-08 08:20 41.70847 -77.09380 32980 ft 518 kts 47°
2026-05-08 08:21 41.72802 -77.05304 32993 ft 520 kts 51°
2026-05-08 08:21 41.76576 -76.97080 32973 ft 517 kts 51°
2026-05-08 08:22 41.80417 -76.88954 32973 ft 516 kts 51°
2026-05-08 08:22 41.84268 -76.80879 32686 ft 512 kts 50°
2026-05-08 08:22 41.86196 -76.76834 31564 ft 519 kts 51°
2026-05-08 08:23 41.88148 -76.72723 30575 ft 523 kts 51°
2026-05-08 08:23 41.90064 -76.68659 29701 ft 522 kts 51°
2026-05-08 08:23 41.91993 -76.64549 28766 ft 519 kts 52°
2026-05-08 08:23 41.93931 -76.60415 27957 ft 513 kts 52°
2026-05-08 08:24 41.95796 -76.56444 27279 ft 506 kts 52°
2026-05-08 08:24 41.97661 -76.52464 26556 ft 499 kts 52°
2026-05-08 08:24 41.99521 -76.48493 25822 ft 493 kts 52°
2026-05-08 08:24 42.01314 -76.44665 25148 ft 487 kts 52°
2026-05-08 08:25 42.03106 -76.40834 24452 ft 481 kts 52°
2026-05-08 08:25 42.04874 -76.37052 23753 ft 475 kts 52°
2026-05-08 08:25 42.06623 -76.33304 22975 ft 470 kts 52°
2026-05-08 08:25 42.08343 -76.29609 22220 ft 463 kts 53°
2026-05-08 08:26 42.10039 -76.25962 21475 ft 456 kts 53°
2026-05-08 08:26 42.11707 -76.22373 20779 ft 449 kts 53°
2026-05-08 08:26 42.13421 -76.18894 20098 ft 438 kts 47°
2026-05-08 08:26 42.15524 -76.16060 19485 ft 420 kts 31°
2026-05-08 08:27 42.17981 -76.14102 18907 ft 401 kts 17°
2026-05-08 08:27 42.20590 -76.13051 18356 ft 384 kts
2026-05-08 08:27 42.23206 -76.12679 17798 ft 376 kts 358°
2026-05-08 08:27 42.25803 -76.12429 17266 ft 373 kts 358°
2026-05-08 08:28 42.28381 -76.12171 16782 ft 371 kts 358°
2026-05-08 08:28 42.30945 -76.11896 16422 ft 369 kts 359°
2026-05-08 08:28 42.33495 -76.11609 15961 ft 366 kts 359°
2026-05-08 08:28 42.36032 -76.11317 15475 ft 365 kts 359°
2026-05-08 08:29 42.38545 -76.11025 15084 ft 362 kts 359°
2026-05-08 08:29 42.41052 -76.10734 14792 ft 360 kts 359°
2026-05-08 08:29 42.43549 -76.10444 14530 ft 360 kts 359°
2026-05-08 08:29 42.46036 -76.10155 14284 ft 358 kts 359°
2026-05-08 08:30 42.48520 -76.09865 14052 ft 358 kts 359°
2026-05-08 08:30 42.50995 -76.09575 13807 ft 357 kts 359°
2026-05-08 08:30 42.55887 -76.09005 12988 ft 354 kts 359°
2026-05-08 08:31 42.58339 -76.08719 12494 ft 353 kts 360°
2026-05-08 08:31 42.60812 -76.08430 11992 ft 352 kts
2026-05-08 08:31 42.63253 -76.08144 11459 ft 352 kts
2026-05-08 08:31 42.65640 -76.07862 11080 ft 343 kts
2026-05-08 08:32 42.67954 -76.07377 10936 ft 331 kts 11°
2026-05-08 08:32 42.70080 -76.06385 10797 ft 316 kts 15°
2026-05-08 08:32 42.72097 -76.05361 10634 ft 302 kts 15°
2026-05-08 08:32 42.74025 -76.04385 10411 ft 291 kts 15°
2026-05-08 08:33 42.75910 -76.03445 10027 ft 287 kts 15°
2026-05-08 08:33 42.77780 -76.02515 9579 ft 285 kts 15°
2026-05-08 08:33 42.79630 -76.01596 9097 ft 283 kts 16°
2026-05-08 08:33 42.81468 -76.00682 8617 ft 280 kts 16°
2026-05-08 08:34 42.83297 -75.99771 8148 ft 279 kts 16°
2026-05-08 08:34 42.85110 -75.98869 7698 ft 277 kts 16°
2026-05-08 08:34 42.86910 -75.97972 7253 ft 275 kts 16°
2026-05-08 08:34 42.88703 -75.97082 6793 ft 273 kts 17°
2026-05-08 08:35 42.90462 -75.96136 6340 ft 273 kts 26°
2026-05-08 08:35 42.92004 -75.94625 5878 ft 273 kts 37°
2026-05-08 08:35 42.93450 -75.92964 5431 ft 271 kts 38°
2026-05-08 08:35 42.94879 -75.91302 4990 ft 268 kts 38°
2026-05-08 08:36 42.96296 -75.89658 4549 ft 266 kts 38°
2026-05-08 08:36 42.97700 -75.88030 4132 ft 263 kts 38°
2026-05-08 08:36 42.99086 -75.86420 3976 ft 255 kts 38°
2026-05-08 08:36 43.00271 -75.84721 3947 ft 238 kts 47°
2026-05-08 08:37 43.01302 -75.83039 3848 ft 226 kts 46°
2026-05-08 08:37 43.02522 -75.81772 3467 ft 218 kts 19°
2026-05-08 08:37 43.03972 -75.81352 3090 ft 213 kts
2026-05-08 08:37 43.05435 -75.80996 2972 ft 214 kts
2026-05-08 08:38 43.06894 -75.80796 2841 ft 208 kts 348°
2026-05-08 08:38 43.07791 -75.81211 2694 ft 206 kts 328°
2026-05-08 08:38 43.08921 -75.82382 2671 ft 204 kts 316°
2026-05-08 08:38 43.09971 -75.83694 2678 ft 204 kts 316°
2026-05-08 08:39 43.11005 -75.85020 2683 ft 200 kts 309°
2026-05-08 08:39 43.11573 -75.86592 2678 ft 174 kts 281°
2026-05-08 08:39 43.11652 -75.88210 2726 ft 172 kts 269°
2026-05-08 08:39 43.11572 -75.89847 2722 ft 173 kts 269°
2026-05-08 08:40 43.11515 -75.91489 2706 ft 173 kts 268°
2026-05-08 08:40 43.11460 -75.93135 2703 ft 173 kts 268°
2026-05-08 08:40 43.11406 -75.94778 2601 ft 173 kts 268°
2026-05-08 08:40 43.11352 -75.96411 2396 ft 171 kts 268°
2026-05-08 08:41 43.11300 -75.97994 2160 ft 163 kts 268°
2026-05-08 08:41 43.11251 -75.99503 1924 ft 155 kts 268°
2026-05-08 08:41 43.11204 -76.00941 1713 ft 146 kts 268°
2026-05-08 08:41 43.11161 -76.02250 1519 ft 126 kts 267°
2026-05-08 08:42 43.11123 -76.03444 1309 ft 126 kts 267°
2026-05-08 08:42 43.11083 -76.04654 1122 ft 128 kts 266°
2026-05-08 08:42 43.11043 -76.05872 940 ft 129 kts 266°
2026-05-08 08:42 43.11005 -76.07104 752 ft 130 kts 265°
2026-05-08 08:43 43.10961 -76.08338 606 ft 130 kts 264°
2026-05-08 08:43 43.10921 -76.09579 451 ft 130 kts 264°
2026-05-08 08:43 43.10879 -76.10669 432 ft 88 kts 267°
2026-05-08 08:43 43.10862 -76.11230 433 ft 37 kts 268°
2026-05-08 08:44 43.10849 -76.11580 427 ft 29 kts 269°
2026-05-08 08:44 43.10856 -76.11761 429 ft 9 kts 272°
2026-05-08 08:44 43.10897 -76.11822 426 ft 11 kts 348°
2026-05-08 08:44 43.10960 -76.11773 422 ft 13 kts 65°
2026-05-08 08:45 43.10977 -76.11638 429 ft 16 kts 89°
2026-05-08 08:45 43.10980 -76.11523 430 ft 11 kts 87°
2026-05-08 08:45 43.10984 -76.11408 427 ft 13 kts 87°
2026-05-08 08:45 43.10989 -76.11272 430 ft 15 kts 87°
2026-05-08 08:46 43.10994 -76.11150 430 ft 11 kts 86°
2026-05-08 08:46 43.10997 -76.11039 430 ft 13 kts 89°
2026-05-08 08:46 43.10999 -76.10907 430 ft 15 kts 89°
2026-05-08 08:46 43.11000 -76.10775 430 ft 8 kts 85°
2026-05-08 08:47 43.11037 -76.10718 427 ft 10 kts
2026-05-08 08:47 43.11113 -76.10721 424 ft 12 kts 358°
2026-05-08 08:47 43.11204 -76.10726 424 ft 14 kts 358°
2026-05-08 08:47 43.11310 -76.10732 423 ft 16 kts 358°
2026-05-08 08:48 43.11381 -76.10738 427 ft 10 kts 338°
2026-05-08 08:48 43.11399 -76.10830 429 ft 12 kts 265°
2026-05-08 08:48 43.11400 -76.10945 429 ft 8 kts 274°
2026-05-08 08:48 43.11401 -76.10986 429 ft 4 kts 269°
2026-05-08 08:49 43.11392 -76.11026 429 ft 4 kts 219°
2026-05-08 08:49 43.11374 -76.11032 427 ft 1 kts 181°
2026-05-08 08:49 43.11355 -76.11032 423 ft 4 kts 178°
2026-05-08 08:49 43.11342 -76.11031 423 ft 0 kts 178°